Location: Bittelbronn
(48.4454°N, 8.5870°E)
Time: 19:51:36
(UTC+00:00)

Meteor 1-24 Rocket - Pass Details

Date: 23 May 2024
Orbit: 789 x 927 km, 81.3° (Epoch: 16 June)

Event Time Altitude Azimuth Distance (km) Brightness Sun altitude
Exits shadow 02:02:47 10° 185° (S) 2,604 5.7 -12.2°
Maximum altitude 02:08:45 81° 99° (E) 943 4.0 -11.6°
Drops below altitude 10° 02:14:46 10° 13° (NNE) 2,618 7.3 -10.9°
Sets 02:17:14 0° 13° (NNE) 3,551 8.1 -10.7°
